Simultaneous Nadir Overpasses (SNOs) Predictions

Prediction of SNOs between LANDSAT-8 and METOP-B Satellite Orbit:

Table of predicted SNOs for the next 14.0 days since TLE Epoch: 10/3/2025
Index Date (LANDSAT-8) Time (LANDSAT-8) Lat,Lon (LANDSAT-8) SZA (LANDSAT-8 ) Date (METOP-B) Time (METOP-B) Lat,Lon (METOP-B) SZA (METOP-B ) Distance(km) Time Diff (sec)
1 10/03/2025 17:37:08 -81.35, 139.59 91.73 10/03/2025 17:36:50 -81.35, 139.78 91.71 3.12 18
2 10/03/2025 18:26:34 81.36, -52.63 88.31 10/03/2025 18:27:30 81.35, -52.81 88.31 3.08 56
3 10/06/2025 12:21:57 81.35, 38.39 89.36 10/06/2025 12:20:51 81.35, 38.41 89.34 0.39 66
4 10/06/2025 13:11:24 -81.35,-154.04 90.64 10/06/2025 13:11:32 -81.35,-153.88 90.61 2.68 8
5 10/09/2025 07:56:13 81.35, 104.72 90.44 10/09/2025 07:55:34 81.35, 104.59 90.41 2.32 39
6 10/09/2025 08:45:40 -81.34, -87.68 89.56 10/09/2025 08:46:15 -81.35, -87.69 89.54 0.94 35
7 10/12/2025 03:30:27 81.36, 171.42 91.55 10/12/2025 03:30:15 81.35, 171.41 91.54 0.78 12
8 10/12/2025 04:19:54 -81.36, -20.95 88.44 10/12/2025 04:20:56 -81.35, -20.85 88.41 1.77 62
9 10/14/2025 22:15:14 -81.35, 70.08 87.43 10/14/2025 22:14:17 -81.35, 69.96 87.47 2.05 57



Historial Predications of SNOs between LANDSAT-8 and METOP-B
